Regional Weather Roundup
Issued by NWS Grand Forks, ND

Home | Current Version | Previous Version | Graphics & Text | Print | Product List | Glossary On
Versions: 1 2 3 4 5 6 7 8 9 10 11 12 13 14 15 16 17 18 19 20 21 22 23 24 25 26 27 28 29 30 31 32 33 34 35 36 37 38 39 40 41 42 43 44 45 46 47 48 49 50
000
ASUS43 KFGF 201531
RWRFGF
PRAIRIE TO PINES  WEATHER ROUNDUP
NATIONAL WEATHER SERVICE EASTERN NORTH DAKOTA/GRAND FORKS ND
900 AM CST TUE FEB 20 2018

 **SATELLITE DATA USED TO AUGMENT SKY COVER AT AUTOMATED STATIONS**
 *****  WEATHER ACROSS EASTERN NORTH DAKOTA  *****

CITY           SKY/WX    TMP DP  RH WIND       PRES   REMARKS
GRAND FORKS    LGT SNOW   5   1  83 NW15      30.11S FOG     WCI -13
GRAND FRKS AFB LGT SNOW   5   0  78 N13       30.11S FOG     WCI -12
GRAND FRKS NWS   N/A      4   1  88 N9        30.08S WCI -11
DEVILS LAKE    LGT SNOW   3   0  85 NW12      30.09F FOG     WCI -13
FARGO          LGT SNOW   6   2  83 N15       30.05F VSB 3/4 WCI -12
WAHPETON ARPT  CLOUDY     7   1  78 N18G25    30.04F WCI -12
$$

 ***** WEATHER ACROSS CENTRAL AND WESTERN NORTH DAKOTA  *****

CITY           SKY/WX    TMP DP  RH WIND       PRES   REMARKS
BISMARCK       FAIR       4  -1  80 W9        30.15R WCI -10
MINOT          FAIR       1  -4  79 SW8       30.10S WCI -13
JAMESTOWN      LGT SNOW   4   0  83 NW14      30.08S VSB 1   WCI -14
MINOT AFB      FAIR      -1  -7  76 W9        30.09S WCI -17
GARRISON         N/A     -3  -7  82 W13       30.11R WCI -22
WILLISTON      CLOUDY     0  -6  76 W14       30.12R HAZE    WCI -19
DICKINSON      PTSUNNY   -6 -11  79 W8        30.05S WCI -21
HETTINGER      FAIR     -11 -15  82 NW8       30.09R WCI -28
$$

 *****  OTHER AIRPORT OBSERVATIONS IN OUR AREA  *****

CITY           SKY/WX    TMP DP  RH WIND       PRES   REMARKS
WALHALLA       LGT SNOW   5   5 100 NW5       30.12S WCI  -4
GRAFTON AIRPOR FOG        5   1  85 NW10      30.15R VSB 1   WCI -10
VALLEY CITY AR LGT SNOW   3   1  92 NW15G21   30.08F WCI -15
CANDO          PTSUNNY    3   0  85 NW10      30.11S FOG     WCI -12
CAVALIER APRT  LGT SNOW   5   1  85 NW8       30.12S WCI  -8
GWINNER          N/A      5   1  85 NW18      30.06R HAZE    WCI -15
SHEYENNE NWR     N/A      5   1  85 N10       29.95S WCI -10
ROLLA          FAIR       0  -6  78 W6        30.05F WCI -12
 ***** THE ABOVE OBSERVATIONS ARE NON NWS ARE NOT QUALITY
       CONTROLLED AND MAY MIS-REPORT RAIN FOR SNOW...
$$

  *****  WEATHER ACROSS NORTHERN MINNESOTA  *****

CITY           SKY/WX    TMP DP  RH WIND       PRES   REMARKS
FLAG ISLAND    LGT SNOW   3  -2  78 NW13      30.01F WCI -14
WARROAD        LGT SNOW   3   0  85 NW8       30.03F WCI -10
ROSEAU         LGT SNOW   5   0  78 N9        30.04  WCI  -9
HALLOCK        LGT SNOW   3   0  85 NW8       30.11R WCI -10
THF RVR FALLS  LGT SNOW   3   0  85 N13       30.03F WCI -14
BAUDETTE       LGT SNOW   4   0  83 N8        29.97F FOG     WCI  -9
WASKISH        LGT SNOW   5   1  85 N8        29.95F WCI  -8
CROOKSTON      LGT SNOW   5   1  85 N16       30.06F WCI -14
STEPHEN NDAWN    N/A      3   0  85 N10         N/A  WCI -12
GREENBUSH NDAW   N/A      1  -2  85 NW9         N/A  WCI -14
$$
  *****  WEATHER ACROSS CENTRAL AND WEST MINNESOTA  *****

CITY           SKY/WX    TMP DP  RH WIND       PRES   REMARKS
FOSSTON        LGT SNOW   3  -2  78 NW14      30.01R WCI -15
BEMIDJI        LGT SNOW   4  -1  81 NW12      29.94S WCI -12
PARK RAPIDS    LGT SNOW   6   1  80 N8        29.92F VSB 1   WCI  -7
ELBOW LAKE     LGT SNOW   6   2  84 W14G21    29.99S WCI -11
WADENA         LGT SNOW   7   3  85 NW8       29.95R WCI  -6
DETROIT LAKES  LGT SNOW   7   3  85 NW14      29.97F VSB 1   WCI -10
MOORHEAD       MIX PCPN   3   0  85 N18G24    30.05F WCI -17
FERGUS FALLS   LGT SNOW   7   1  78 N15G24    30.01S WCI -11
MORRIS MN      LGT SNOW   7   1  78 NW18G24   29.98R WCI -12
STAPLES        LGT SNOW   7   1  78 N6        29.93R WCI  -3
$$
  *****  WEATHER ELSEWHERE ACROSS MINNESOTA  *****

CITY           SKY/WX    TMP DP  RH WIND       PRES   REMARKS
DULUTH         FRZ DRZL   8   4  83 N9        29.83F WCI  -5
INTRNTL FALLS  LGT SNOW   4   0  83 N10       29.94F VSB 1   WCI -11
ELY            FLURRIES   1  -2  85 NE7       29.86F WCI -11
CLOQUET        LGT SNOW   7   3  85 NW12      29.85S WCI  -9
WHEATON        LGT SNOW   5   0  78 NW16G24   30.05R WCI -14
BRAINERD       LGT SNOW   9   2  73 N8        29.92R WCI  -3
HIBBING        CLOUDY     4  -1  80 N8        29.88F WCI  -9
ALEXANDRIA     LGT SNOW  10   4  76 N9        29.92F WCI  -3
SAINT CLOUD    CLOUDY    12   7  80 NW10G18   29.90F WCI  -1
MINNEAPOLIS    FLURRIES  20  18  92 NW10      29.91R WCI   9
$$

  *****  WEATHER ACROSS SOUTH DAKOTA  *****

CITY           SKY/WX    TMP DP  RH WIND       PRES   REMARKS
SIOUX FALLS    PTSUNNY    6   1  80 NW14      30.03R WCI -11
BROOKINGS      FLURRIES   4  -1  80 NW13      30.00R WCI -13
WATERTOWN      LGT SNOW   4  -1  80 NW20      29.99R WCI -17
HURON          LGT SNOW   7   2  80 NW16      30.11R WCI -11
SISSETON         N/A      5   1  83 NW22      30.02F WCI -16
ABERDEEN       LGT SNOW   6   1  80 N18       30.10S WCI -13
MITCHELL       PTSUNNY    6   1  80 NW18      30.12R WCI -13
PIERRE         LGT SNOW   3   0  87 NW13      30.13S FOG     WCI -14
MOBRIDGE       CLOUDY     7   0  73 NW10      30.10R WCI  -8
RAPID CITY     FAIR      -8 -13  78 NW10      30.06R WCI -26
$$

  *****  SOME WEATHER IN NEARBY STATES *****

CITY           SKY/WX    TMP DP  RH WIND       PRES   REMARKS
GLASGOW MT     MOCLDY   -13 -17  82 NW5       30.11R WCI -25
GREAT FALLS MT FAIR     -11 -19  68 SW15      29.99R WCI -33
CHEYENNE WY    FAIR      -6 -11  79 W3        29.81R
SCOTTSBLUFF NE FAIR      -8 -14  74 NW5       30.04R WCI -19
OMAHA NE       PTSUNNY   17  11  77 NW18      30.07R WCI   1
DES MOINES IA  LGTSLEET  26  22  84 NW18      29.96R FOG     WCI  13
DAVENPORT IA   CLOUDY    37  34  89 NW8       29.86F
CHICAGO IL     CLOUDY    61  58  90 SW13      29.84S
EAU CLAIRE WI  CLOUDY    21  18  88 CALM      29.81F
LA CROSSE WI   CLOUDY    32  31  96 W3        29.82R
$$

  *****  SOME NATIONAL WEATHER *****

CITY           SKY/WX    TMP DP  RH WIND       PRES   REMARKS
LA GUARDIA NY  CLOUDY    54  51  90 SW14      30.33S
RALEIGH NC     FOG       56  56 100 SW5       30.48S VSB 1/4
ATLANTA GA     DRZL/FOG  63  63 100 SE10      30.39R VSB 1/4
NEW ORLEANS LA PTSUNNY   77  71  82 SE15      30.17R
OKLAHOMA CITY  TSTM      32  31  96 N28G33    29.94R FOG     WCI  18
ALBUQUERQUE NM FLURRIES  30  15  53 NW12      29.97R WCI  20
SALT LAKE CITY FLURRIES  21  16  81 SE5       30.01R WCI  15
LOS ANGELES CA FAIR      42  19  39 E5        30.13R
BOISE ID       FAIR      10   2  69 NW5       30.15R WCI   2
SEATTLE WA     CLOUDY    29  19  66 SE7       30.16F WCI  22
$$

*** WEATHER ACROSS MANITOBA...SASKATCHEWAN AND ONTARIO ***
                ***ONTARIO***

CITY           SKY/WX    TMP DP  RH WIND       PRES   REMARKS
GERALDTON      SNOW      -9 -15  77 NE15G26   30.00F VSB 1/4 WCI -31
THUNDER BAY    LGT SNOW   3   0  85 NW3       29.94S
SIOUX LOOKOUT  LGT SNOW   0  -8  71 NE5       29.97F WCI -10
TORONTO        LGT RAIN  46  46 100 SE5       30.02R
BIG TROUT LK   PTSUNNY  -15 -26  58 SE7       30.31F WCI -31
PICKLE LAKE    LGT SNOW  -9 -17  70 NE12      30.08F WCI -29
DRYDEN         LGT SNOW   0  -6  78 NE12      29.97S WCI -18
KENORA         LGT SNOW   0  -6  78 N10       30.00F WCI -17
$$
                *** MANITOBA***

CITY           SKY/WX    TMP DP  RH WIND       PRES   REMARKS
BRANDON        LGT SNOW   3  -2  78 SW8       30.08F WCI -10
DAUPHIN        SUNNY      1  -6  71 SW9       30.08R WCI -14
ISLAND LAKE    CLOUDY   -11 -20  64 SE7       30.15F WCI -26
PILOT MOUND      N/A      1  -2  85 NW6         N/A  WCI -10
THE PAS        PTCLDY   -15 -22  70 SE8       29.97F WCI -32
THOMPSON       PTCLDY   -15 -22  70 E3        30.07S
WINNIPEG       LGT SNOW   1  -2  85 N2        30.13F
LYNN LAKE      LGT SNOW  -8 -11  84 N6        29.93F WCI -21
CHURCHILL      CLOUDY   -20 -26  76 E9        30.35  WCI -40
GILLAM         MOCLDY   -18 -26  69 SE5       30.20  WCI -31
$$
                ***SASKATCHEWAN***

CITY           SKY/WX    TMP DP  RH WIND       PRES   REMARKS
ESTEVAN        CLOUDY     0  -8  71 SW8       30.07R WCI -15
KINDERSLEY     PTCLDY     0  -9  65 SW9       29.94S WCI -16
LLOYDMINSTER   LGT SNOW   5   1  85 N9        29.94R FOG     WCI  -9
PRINCE ALBERT  FLURRIES  -8 -13  77 W3        29.95S
REGINA         MOCLDY    -8 -13  77 SW8       30.00S WCI -23
YORKTON        PTCLDY    -9 -15  77 SW15      29.97F WCI -31
N. BATTLEFORD  FLURRIES   3  -2  78 NW7       29.96R WCI  -9
LA RONGE       FLURRIES  -8 -13  77 N13G20    29.98R WCI -28
SASKATOON      MOCLDY     0  -6  78 SW9       29.96R WCI -16
SWIFT CURRENT  CLEAR     -4 -15  59 W12G17    29.94S WCI -22
$$
NOTE: THESE ARE AUTOMATED STATIONS WITH LIMITED QUALITY CONTROL
      "FAIR" INDICATES FEW OR NO CLOUDS BELOW 12,000 FEET WITH NO
      SIGNIFICANT WEATHER AND/OR OBSTRUCTIONS TO VISIBILITY.
      SKY/WX - SKY CONDITION AND SIGNIFICANT WEATHER.
      TMP - AIR TEMPERATURE.    DP   - DEWPOINT TEMPERATURE.
      RH  - RELATIVE HUMIDITY.  PRES - PRESSURE.
      HX  - HEAT INDEX.         WCI  - WIND CHILL INDEX.
$



USA.gov is the U.S. government's official web portal to all federal, state and local government web resources and services.